Notices

What's New in latest Release from April 7th, 2021:

- Updated Glossary, including Speed of Maximum Gust, and Total Hourly Precipitation

- Updated national and regional climate services offices contacts and prices information

- Addition of station inventory lists for 1981-2010, 1971-2000, and 1961-1990 Normals.

If you haven't already, please take our survey and provide feedback about our website: https://eccc.sondage-survey.ca/f/LanguageSelection.aspx?s=442ca660-fcf1-47c0-95a9-59707d6fd709

Hourly Data Report for April 29, 2003

TORONTO CITY
ONTARIO

43°40'00.000" N
79°24'00.000" W
112.50 m
6158355
71508
XTO

Download Data

Hourly Data (April 2003)
Hourly Data Report for April 29, 2003
TIME
LST
Temp Definition
°C
Dew Point Definition
°C
Rel Hum Definition
%
Precip. Amount Definition
mm

Wind Dir Definition
10's deg

Wind Spd Definition
km/h
Visibility Definition
km
Stn Press Definition
kPa
Hmdx Definition


Wind Chill Definition


Weather Definition


00:00 11.0 3.1 58   LegendMM LegendMM LegendMM 99.69     LegendNANA
01:00 9.8 2.7 61   LegendMM LegendMM LegendMM 99.73     LegendNANA
02:00 8.0 2.1 66   LegendMM LegendMM LegendMM 99.80     LegendNANA
03:00 7.1 1.8 69   LegendMM LegendMM LegendMM 99.87     LegendNANA
04:00 6.6 1.7 71   LegendMM LegendMM LegendMM 99.94     LegendNANA
05:00 6.3 2.0 74   LegendMM LegendMM LegendMM 100.05     LegendNANA
06:00 6.1 2.2 76   LegendMM LegendMM LegendMM 100.13     LegendNANA
07:00 6.8 2.1 72   LegendMM LegendMM LegendMM 100.26     LegendNANA
08:00 8.6 1.7 62   LegendMM LegendMM LegendMM 100.29     LegendNANA
09:00 9.6 -0.4 50   LegendMM LegendMM LegendMM 100.34     LegendNANA
10:00 10.9 0.9 50   LegendMM LegendMM LegendMM 100.34     LegendNANA
11:00 12.7 -1.3 38   LegendMM LegendMM LegendMM 100.32     LegendNANA
12:00 13.8 -0.4 38   LegendMM LegendMM LegendMM 100.29     LegendNANA
13:00 14.9 -0.9 34   LegendMM LegendMM LegendMM 100.25     LegendNANA
14:00 13.4 0.4 41   LegendMM LegendMM LegendMM 100.25     LegendNANA
15:00 13.7 0.0 39   LegendMM LegendMM LegendMM 100.20     LegendNANA
16:00 14.3 -1.0 35   LegendMM LegendMM LegendMM 100.16     LegendNANA
17:00 14.5 -0.5 36   LegendMM LegendMM LegendMM 100.15     LegendNANA
18:00 13.7 -1.2 36   LegendMM LegendMM LegendMM 100.20     LegendNANA
19:00 12.8 0.2 42   LegendMM LegendMM LegendMM 100.26     LegendNANA
20:00 11.1 -0.2 46   LegendMM LegendMM LegendMM 100.31     LegendNANA
21:00 9.9 -0.4 49   LegendMM LegendMM LegendMM 100.38     LegendNANA
22:00 8.6 -1.3 50   LegendMM LegendMM LegendMM 100.39     LegendNANA
23:00 8.3 -1.9 49   LegendMM LegendMM LegendMM 100.44     LegendNANA

Notes on Data Quality.

Legend

  • E = Estimated
  • M = Missing
  • NA = Not Available*
  • [empty] = Indicates an unobserved value
Date modified: